Location: Unspecified
(43.0000°N, 0.0000°E)
Time: 12:44:15
(UTC+00:00)

PicSat - Pass Details

Date: 16 August 2020
Orbit: 482 x 496 km, 97.4° (Epoch: 21 September)

Event Time Altitude Azimuth Distance (km) Brightness Sun altitude
Exits shadow 21:03:47 20° 54° (NE) 1,219 ? -20.2°
Drops below altitude 10° 21:05:55 10° 19° (NNE) 1,703 ? -20.4°
Sets 21:08:22 0° 3° (N) 2,590 ? -20.8°
